User: anonymous   Login
Location: Bosmont
(49.7318°N, 3.8587°E)
Time: 00:13:51
(UTC+00:00)
Language:

Cosmos 1340 - Orbit

View from above orbital plane
View from above orbital plane
View from above satellite
View from above satellite

Ground track
Ground track

The orbit data is extracted from the following two-line orbital elements,

1 13067U 82013A   23156.58410046  .00011053  00000-0  37900-3 0  9998
2 13067  81.1829 104.5769 0004807  49.7063 310.4592 15.30048486258893
Epoch (UTC): 05 June 2023 14:01:06
Eccentricity: 0.0004807
inclination: 81.1829°
perigee height: 472 km
apogee height: 479 km
right ascension of ascending node: 104.5769°
argument of perigee: 49.7063°
revolutions per day: 15.30048486
mean anomaly at epoch: 310.4592°
orbit number at epoch: 25889

The dashed part of the orbit path shows where the satellite is in the earth's shadow,  

DLR